Vorticity
10 -1 6 6 5 -2 18 13 42 -1 16 4 3 -4 -6 2 -7 42 51 19 10 9 11 5 18 17 28 10 6 28 -9 26 -14 9 21 6 7 10 9 7 7 8 8 9
9 -2 6 5 6 3 25 7 7 12 0 3 6 -5 -0 -2 5 12 42 21 16 13 18 15 12 11 13 16 33 -7 23 14 16 46 35 10 24 17 11 9 9 9 9 9
9 1 10 7 9 12 33 2 13 8 4 28 6 2 -3 -2 3 9 14 25 35 41 37 -10 20 17 9 13 1 36 20 42 22 26 -5 4 -4 4 10 9 9 9 10 10
15 -9 19 8 9 12 21 7 15 8 5 1 18 7 -13 -5 4 2 5 5 8 14 16 40 13 13 17 24 4 -2 -1 7 -21 8 -4 25 33 10 10 10 13 10 9 9
-4 5 11 0 12 12 -4 25 9 7 6 5 7 20 -7 -2 5 2 4 5 3 8 5 23 18 3 15 22 34 -8 3 3 17 4 7 6 44 35 -1 16 16 13 10 9
2 14 12 14 11 14 1 31 5 12 7 18 13 8 3 5 2 3 2 4 6 8 3 3 11 23 6 0 12 14 29 25 6 11 5 4 5 19 39 -6 10 10 12 10
22 10 10 10 7 3 10 25 7 14 14 2 7 13 -2 2 3 4 2 3 4 7 8 6 6 8 19 17 -11 10 7 14 17 16 6 9 -3 4 4 11 51 -5 3 18
7 13 4 -15 6 11 8 12 14 10 5 -5 14 10 9 6 6 3 2 3 4 2 4 5 7 8 8 8 9 7 10 13 13 28 12 29 17 14 17 11 -10 -9 45 51
16 0 -2 30 5 25 3 -0 14 11 22 12 16 9 8 7 4 5 3 3 3 3 4 6 5 4 3 4 6 6 6 9 6 6 8 7 8 12 8 1 11 8 17 7
-7 23 21 2 4 14 10 5 14 9 10 15 22 17 -5 8 -1 8 6 6 6 7 6 4 5 5 5 5 4 6 4 4 5 7 8 9 10 10 10 10 9 10 11 11
-0 18 -32 15 6 1 -1 9 8 10 10 7 5 15 -3 7 10 10 7 9 8 6 5 5 3 5 5 6 5 4 2 2 4 3 2 2 2 4 5 5 6 8 8 9
17 9 3 14 20 8 5 21 -2 11 8 5 5 15 17 8 1 1 2 8 8 6 4 4 5 6 5 0 2 5 6 5 3 3 3 3 5 4 3 2 2 3 4 4
-6 3 14 19 23 23 11 7 13 17 5 11 -4 4 3 -6 2 1 6 0 3 8 8 7 7 8 8 7 6 5 5 7 7 6 5 4 2 1 1 2 2 2 2 2
11 7 -6 -24 -26 -25 -26 6 11 7 3 -1 -21 -14 -10 5 3 3 -3 5 6 9 8 5 4 6 11 12 10 7 3 1 -0 0 3 6 8 9 7 5 3 3 2 3
12 5 6 4 15 15 8 8 6 8 7 -11 -17 15 -3 -10 -9 4 3 7 8 8 8 8 8 5 3 0 -1 1 5 7 4 4 3 3 1 1 -0 2 6 9 9 5
10 1 9 -6 14 34 15 14 16 15 14 21 16 -0 -2 7 6 6 7 6 8 7 11 10 13 12 6 3 2 3 3 7 12 16 17 15 14 16 17 20 20 18 15 17
6 10 2 4 31 5 45 50 33 30 36 25 22 28 11 11 9 9 9 5 7 12 11 6 -4 -1 1 5 12 18 18 18 17 16 15 12 10 11 12 11 10 11 12 13
4 5 8 0 26 29 25 13 8 6 14 19 16 9 11 11 7 6 8 11 12 9 -1 -2 -1 1 9 13 13 12 10 13 18 18 17 17 17 17 14 11 10 8 9 10
29 18 -3 -2 13 -21 27 26 18 14 9 8 7 8 8 9 11 7 14 5 -0 -0 -1 -0 5 12 13 14 10 13 13 12 12 13 14 14 13 14 15 16 16 14 9 4
20 22 15 17 3 -1 2 5 10 7 8 5 6 13 17 18 1 -2 2 5 4 3 5 9 13 14 10 10 11 14 14 12 11 9 11 12 12 12 11 12 13 13 16 20
19 13 8 11 -14 20 10 14 14 23 -6 17 14 8 -4 -9 3 9 9 1 0 10 11 12 13 9 11 12 12 11 11 10 10 10 10 9 9 10 11 14 16 14 9 12
8 13 11 54 11 22 30 14 13 7 2 -0 -1 -3 6 12 7 1 5 17 12 9 14 11 11 13 12 11 12 12 10 9 9 10 11 12 13 14 15 14 14 13 10 9
18 11 -16 -14 -13 -25 -24 -5 2 2 4 7 9 8 5 4 14 14 9 8 13 11 10 12 12 12 12 11 10 10 9 9 9 10 10 11 11 11 11 12 11 11 11 13
-1 6 -7 22 12 12 15 8 10 9 14 8 6 8 9 12 11 9 14 11 11 13 11 11 10 10 11 10 9 9 9 10 10 10 9 9 9 10 10 10 11 12 11 11
1 13 3 -4 5 8 10 15 14 11 10 3 9 7 9 10 11 10 11 11 10 12 11 10 11 10 10 10 10 10 10 9 8 8 9 9 10 10 10 10 12 12 11 15
14 12 6 4 10 12 13 13 11 7 13 10 13 14 12 11 12 12 11 13 12 11 10 9 9 9 8 9 8 8 7 8 8 9 10 11 12 12 13 13 11 11 15 14
Height
3137 3136 3133 3131 3129 3128 3127 3125 3124 3123 3121 3118 3115 3113 3110 3104 3094 3085 3071 3066 3066 3067 3068 3068 3068 3071 3072 3073 3077 3080 3084 3087 3087 3089 3095 3100 3103 3108 3110 3111 3114 3118 3121 3125
3136 3134 3133 3131 3128 3127 3125 3124 3123 3122 3121 3119 3115 3113 3110 3106 3097 3092 3079 3072 3071 3069 3068 3067 3065 3068 3069 3070 3074 3076 3082 3087 3085 3091 3097 3094 3101 3101 3104 3106 3109 3112 3116 3120
3133 3133 3132 3130 3127 3125 3123 3122 3122 3121 3119 3118 3114 3114 3112 3108 3102 3097 3086 3079 3075 3070 3066 3068 3068 3070 3070 3069 3072 3076 3079 3082 3085 3086 3084 3091 3091 3095 3097 3102 3105 3108 3111 3115
3132 3131 3129 3127 3125 3123 3122 3121 3120 3119 3118 3117 3117 3115 3114 3111 3107 3100 3093 3087 3081 3075 3069 3067 3070 3069 3070 3070 3071 3073 3077 3081 3084 3086 3089 3087 3089 3085 3095 3098 3101 3104 3106 3109
3133 3128 3126 3125 3123 3120 3120 3118 3118 3118 3117 3115 3114 3113 3112 3112 3109 3102 3097 3092 3087 3082 3079 3074 3069 3071 3073 3071 3071 3075 3079 3083 3083 3082 3084 3083 3082 3086 3090 3094 3096 3099 3101 3103
3130 3127 3126 3123 3121 3118 3117 3116 3115 3115 3115 3115 3111 3113 3112 3111 3108 3105 3101 3098 3093 3089 3084 3083 3079 3078 3076 3075 3077 3078 3080 3082 3081 3082 3084 3084 3085 3086 3084 3089 3091 3094 3096 3099
3128 3126 3125 3123 3122 3118 3116 3113 3113 3116 3115 3114 3111 3110 3109 3110 3109 3107 3104 3101 3098 3094 3092 3087 3088 3086 3085 3080 3080 3082 3082 3082 3084 3085 3087 3083 3084 3085 3086 3085 3088 3090 3091 3093
3130 3125 3125 3124 3122 3120 3116 3114 3115 3116 3116 3112 3110 3109 3109 3108 3108 3107 3104 3103 3101 3097 3095 3092 3090 3089 3089 3089 3089 3090 3091 3088 3085 3086 3085 3085 3086 3088 3088 3088 3087 3086 3084 3085
3130 3129 3126 3122 3120 3120 3116 3114 3113 3112 3110 3110 3107 3108 3108 3105 3105 3105 3104 3102 3102 3101 3097 3095 3092 3091 3089 3087 3087 3086 3084 3085 3086 3084 3086 3086 3086 3086 3087 3087 3085 3084 3083 3082
3131 3124 3120 3121 3120 3118 3117 3116 3113 3111 3109 3108 3104 3102 3102 3103 3104 3103 3102 3101 3100 3099 3099 3096 3094 3092 3090 3089 3086 3083 3083 3086 3085 3086 3086 3085 3086 3085 3082 3081 3080 3079 3079 3078
3131 3127 3125 3119 3117 3117 3117 3116 3115 3112 3110 3107 3107 3100 3098 3098 3100 3100 3099 3099 3098 3095 3094 3095 3094 3091 3088 3087 3086 3085 3084 3084 3085 3085 3085 3084 3083 3081 3078 3076 3076 3075 3073 3072
3128 3125 3120 3119 3116 3113 3113 3113 3114 3113 3109 3108 3105 3099 3096 3096 3096 3097 3097 3095 3094 3093 3090 3088 3087 3088 3087 3084 3083 3082 3082 3082 3081 3080 3079 3077 3075 3073 3071 3070 3070 3069 3067 3066
3126 3121 3119 3116 3115 3113 3111 3112 3111 3112 3109 3103 3104 3096 3093 3094 3093 3094 3093 3093 3091 3090 3088 3086 3083 3081 3081 3080 3079 3077 3076 3075 3074 3072 3070 3068 3068 3066 3063 3063 3062 3062 3061 3060
3124 3122 3120 3118 3117 3115 3110 3108 3108 3107 3106 3101 3096 3093 3090 3090 3091 3091 3091 3090 3089 3087 3085 3083 3081 3079 3077 3076 3075 3075 3072 3069 3066 3063 3061 3059 3058 3057 3056 3055 3054 3055 3053 3052
3120 3115 3114 3110 3108 3108 3105 3101 3100 3099 3097 3096 3092 3091 3089 3087 3086 3086 3086 3085 3084 3084 3083 3081 3078 3076 3074 3072 3070 3066 3064 3062 3058 3055 3054 3053 3049 3048 3045 3042 3041 3041 3039 3038
3116 3110 3106 3101 3100 3099 3095 3093 3091 3088 3086 3084 3087 3086 3083 3083 3081 3081 3080 3079 3078 3077 3075 3074 3073 3072 3070 3068 3065 3062 3059 3055 3052 3050 3046 3040 3036 3035 3032 3029 3027 3026 3024 3022
3109 3106 3104 3095 3095 3091 3085 3081 3081 3080 3078 3078 3077 3079 3079 3077 3077 3077 3076 3074 3073 3071 3069 3066 3064 3061 3058 3055 3052 3049 3045 3042 3039 3036 3034 3031 3027 3023 3019 3016 3014 3012 3010 3008
3103 3103 3101 3094 3093 3089 3078 3077 3076 3075 3074 3072 3072 3073 3073 3072 3072 3071 3070 3068 3066 3063 3061 3059 3056 3052 3048 3045 3041 3038 3034 3031 3028 3024 3022 3018 3015 3015 3012 3008 3004 3000 2996 2994
3094 3096 3096 3094 3087 3078 3073 3071 3071 3071 3071 3068 3069 3069 3068 3065 3066 3066 3064 3061 3059 3057 3053 3051 3048 3044 3040 3036 3032 3029 3025 3021 3019 3016 3013 3011 3007 3004 3000 2996 2993 2989 2986 2985
3088 3088 3089 3088 3084 3075 3067 3066 3067 3066 3064 3063 3064 3064 3063 3061 3059 3059 3057 3054 3052 3049 3046 3043 3039 3035 3031 3027 3024 3021 3017 3013 3010 3008 3005 3002 2997 2993 2990 2986 2982 2980 2977 2974
3082 3082 3080 3080 3078 3068 3064 3062 3063 3065 3063 3059 3059 3059 3058 3058 3056 3052 3049 3046 3044 3041 3038 3034 3031 3027 3023 3018 3015 3011 3007 3004 3001 2998 2995 2991 2986 2982 2979 2976 2973 2970 2966 2962
3076 3076 3074 3073 3072 3066 3059 3059 3061 3058 3055 3055 3054 3053 3051 3049 3047 3045 3041 3038 3035 3031 3028 3024 3022 3018 3014 3009 3005 3003 2999 2995 2992 2988 2985 2981 2977 2972 2968 2964 2960 2957 2953 2950
3068 3067 3066 3067 3061 3058 3056 3054 3053 3052 3050 3048 3047 3045 3042 3041 3038 3036 3033 3030 3026 3022 3019 3015 3011 3009 3005 3000 2996 2993 2989 2986 2983 2979 2975 2970 2966 2962 2957 2953 2949 2945 2941 2936
3058 3058 3056 3056 3052 3052 3050 3048 3046 3044 3043 3040 3038 3036 3034 3032 3030 3027 3024 3021 3018 3014 3011 3007 3004 3000 2997 2993 2989 2985 2980 2976 2973 2969 2965 2961 2956 2952 2947 2942 2938 2933 2929 2924
3050 3049 3049 3046 3045 3043 3042 3041 3039 3036 3034 3032 3030 3028 3025 3023 3020 3018 3015 3011 3008 3005 3002 2999 2995 2992 2989 2985 2981 2977 2972 2968 2965 2960 2956 2951 2946 2941 2937 2932 2927 2922 2917 2912
3043 3041 3040 3037 3036 3035 3034 3032 3030 3028 3027 3024 3022 3019 3017 3014 3012 3009 3006 3003 2999 2996 2993 2990 2987 2984 2980 2976 2973 2968 2963 2959 2954 2950 2945 2940 2935 2930 2925 2920 2916 2912 2908 2903